Weather History for Rifle, CO

Change the Weather History Date:

Monday, June 11, 2012

  Actual Average Record
Temperature  
Mean Temperature 60 °F 65 °F  
Max Temperature 82 °F 84 °F 97 °F (1918)
Min Temperature 37 °F 46 °F 32 °F (1975)
Degree Days  
Heating Degree Days 5 3  
Month to date heating degree days 9 40  
Since 1 June heating degree days 9 40  
Since 1 July heating degree days 6016 6606  
Cooling Degree Days 0 2  
Month to date cooling degree days 40 18  
Year to date cooling degree days 48 25  
Since 1 June cooling degree days 40 18  
Growing Degree Days 9 (Base 50)    
Moisture  
Dew Point 14 °F    
Average Humidity 24    
Maximum Humidity 43    
Minimum Humidity 5    
Precipitation  
Precipitation 0.00 in 0.04 in 0.54 in (1967)
Month to date precipitation 0.01 0.44  
Year to date precipitation 2.56 5.86  
Sea Level Pressure  
Sea Level Pressure 30.05 in    
Wind  
Wind Speed 6 mph (West)    
Max Wind Speed 24 mph    
Max Gust Speed 30 mph    
Visibility 9 miles    
Events      
T = Trace of Precipitation, MM = Missing Value Source: NWS Daily Summary

Daily Weather History Graph

Daily Weather History Graph

Search for Another Location

Airport:

Trip Planner

Search our weather history database for the weather conditions in past years. The results will help you decide how hot, cold, wet, or windy it might be!

Date:

Astronomy

Jun. 11, 2012 Rise Set
Actual Time 5:43 AM MDT 8:38 PM MDT
Civil Twilight 5:10 AM MDT 9:10 PM MDT
Nautical Twilight 4:29 AM MDT 9:51 PM MDT
Astronomical Twilight 3:42 AM MDT 10:39 PM MDT
Moon 1:01 AM MDT (6/11) 1:33 PM MDT (6/11)
Length of Visible Light 16h 00m
Length of Day
14h 55m
Waning Gibbous, 47% of the Moon is Illuminated
Jun 11
Waning Gibbous
Jun 19
New
Jun 26
First Quarter
Jul 3
Full
Jul 10
Last Quarter

Hourly Weather History & Observations

Time (MDT) Temp. Windchill Dew Point Humidity Pressure Visibility Wind Dir Wind Speed Gust Speed Precip Events Conditions
12:53 AM 50.0 °F - 12.0 °F 22% 30.03 in 10.0 mi SW 3.5 mph - N/A   Clear
1:53 AM 48.0 °F - 12.9 °F 24% 30.05 in 10.0 mi SSW 3.5 mph - N/A   Clear
2:53 AM 43.0 °F - 12.9 °F 30% 30.08 in 10.0 mi Calm Calm - N/A   Clear
3:53 AM 41.0 °F 39.0 °F 17.1 °F 38% 30.10 in 10.0 mi East 3.5 mph - N/A   Clear
4:53 AM 37.0 °F 33.3 °F 16.0 °F 42% 30.14 in 10.0 mi East 4.6 mph - N/A   Clear
5:53 AM 41.0 °F 34.7 °F 19.0 °F 41% 30.14 in 10.0 mi ESE 10.4 mph - N/A   Clear
7:53 AM 48.9 °F - 21.9 °F 35% 30.16 in 9.0 mi NNW 4.6 mph - N/A   Clear
8:53 AM 54.0 °F - 19.9 °F 26% 30.15 in 9.0 mi Variable 3.5 mph - N/A   Clear
9:53 AM 59.0 °F - 21.0 °F 23% 30.13 in 10.0 mi Variable 3.5 mph - N/A   Clear
10:53 AM 64.9 °F - 21.0 °F 19% 30.10 in 9.0 mi Calm Calm - N/A   Clear
11:53 AM 69.1 °F - 19.9 °F 15% 30.10 in 10.0 mi North 3.5 mph - N/A   Clear
12:53 PM 72.0 °F - 12.9 °F 10% 30.07 in 7.0 mi Variable 5.8 mph - N/A   Clear
1:53 PM 75.0 °F - 12.9 °F 9% 30.03 in 7.0 mi Calm Calm - N/A   Clear
2:53 PM 78.1 °F - 16.0 °F 10% 30.02 in 9.0 mi West 6.9 mph - N/A   Clear
3:53 PM 80.1 °F - 7.0 °F 6% 30.00 in 10.0 mi West 9.2 mph - N/A   Clear
4:53 PM 81.0 °F - 3.9 °F 5% 29.99 in 7.0 mi West 23.0 mph 26.5 mph N/A   Clear
5:53 PM 81.0 °F - 6.1 °F 6% 29.98 in 10.0 mi West 17.3 mph 25.3 mph N/A   Clear
6:53 PM 79.0 °F - 8.1 °F 7% 29.97 in 10.0 mi West 19.6 mph - N/A   Clear
7:53 PM 75.9 °F - 8.1 °F 7% 29.96 in 10.0 mi West 9.2 mph - N/A   Clear
8:53 PM 70.0 °F - 9.0 °F 9% 29.98 in 10.0 mi West 9.2 mph - N/A   Clear
9:53 PM 60.1 °F - 10.0 °F 14% 30.02 in 10.0 mi SE 4.6 mph - N/A   Clear
10:53 PM 59.0 °F - 12.9 °F 16% 30.03 in 10.0 mi East 4.6 mph - N/A   Clear
11:53 PM 54.0 °F - 18.0 °F 24% 30.03 in 10.0 mi Calm Calm - N/A   Clear